Flag for U.S.A. Weather past 2 weeks in Mesquite, Texas, U.S.A.

Now
55 °F

Sunny.


Feels Like: 52 °F
Forecast: 40 / 67 °F
Wind: 15 mph from Southeast

Location: Mesquite Metro Airport


UV Index: 5 (Moderate)

Visibility: 10 mi


Pressure: 30.16 "Hg

Humidity: 47%

Dew point: 36 °F

Location of MesquiteLocation

Historic Weather in Mesquite

°F

Mesquite temperature yesterday

Maximum temperature yesterday: 61 °F (at 3:55 PM)
Minimum temperature yesterday: 36 °F (at 7:55 AM)
Average temperature yesterday: 47 °F

Past Weeks' High & Low Weather Summary

 TemperatureHumidityPressure
High84 °F (Apr 9, 6:55 PM)100% (Apr 2, 4:55 PM)30.33 "Hg (Apr 2, 4:55 PM)
Low36 °F (Apr 15, 7:55 AM)20% (Apr 15, 3:55 PM)26.28 "Hg (Apr 3, 4:55 PM)
Average60 °F68%29.95 "Hg
* Reported Apr 1 9:55 AM — Apr 16 9:55 AM, Mesquite, Weather by CustomWeather, © 2014

Note: Actual official high and low records may vary slightly from our data, if they occured in-between our weather recording intervals... More about our weather records

Advertising

Historic Weather Conditions — Data for Previous 24 hours

 ConditionsComfort  
Time TempWeatherWind HumidityBarometerVisibility
9:55 AM
Apr 16
52 °FSunny.17 mph54%30.16 "Hg10 mi
8:55 AM48 °FSunny.15 mph62%30.16 "Hg10 mi
7:55 AM43 °FSunny.7 mph76%30.15 "Hg10 mi
6:55 AM37 °FClear.No wind93%30.12 "Hg10 mi
5:35 AM38 °FClear.5 mph84%30.11 "Hg10 mi
5:15 AM37 °FClear.5 mph85%30.10 "Hg10 mi
4:55 AM37 °FClear.5 mph86%30.09 "Hg10 mi
4:35 AM40 °FClear.7 mph84%30.09 "Hg10 mi
4:15 AM40 °FClear.7 mph84%30.10 "Hg10 mi
3:55 AM40 °FClear.5 mph83%30.10 "Hg10 mi
3:35 AM40 °FClear.3 mph80%30.11 "Hg10 mi
3:15 AM39 °FClear.5 mph77%30.11 "Hg10 mi
2:55 AM40 °FClear.5 mph76%30.11 "Hg10 mi
2:15 AM43 °FClear.3 mph65%30.12 "Hg10 mi
1:55 AM43 °FClear.3 mph65%30.12 "Hg10 mi
1:15 AM43 °FClear.5 mph68%30.12 "Hg10 mi
12:55 AM43 °FClear.5 mph67%30.13 "Hg10 mi
12:35 AM44 °FClear.3 mph66%30.13 "Hg10 mi
12:15 AM44 °FClear.5 mph66%30.14 "Hg10 mi
11:55 PM
Apr 15
44 °FClear.5 mph65%30.15 "Hg10 mi
11:35 PM46 °FClear.7 mph61%30.15 "Hg10 mi
11:15 PM46 °FClear.7 mph61%30.15 "Hg10 mi
10:55 PM47 °FClear.7 mph58%30.16 "Hg10 mi
10:15 PM48 °FClear.6 mph55%30.16 "Hg10 mi
9:55 PM49 °FClear.6 mph53%30.17 "Hg10 mi
7:55 PM55 °FSunny.6 mph36%30.14 "Hg10 mi
7:05 PM61 °FSunny.7 mph25%30.15 "Hg10 mi
5:55 PM61 °FSunny.5 mph25%30.16 "Hg10 mi
4:55 PM61 °FSunny.No wind23%30.17 "Hg10 mi
3:55 PM61 °FSunny.No wind20%30.20 "Hg10 mi
2:55 PM57 °FSunny.3 mph23%30.24 "Hg10 mi
1:55 PM59 °FSunny.5 mph23%30.27 "Hg10 mi
12:55 PM55 °FSunny.8 mph23%30.30 "Hg10 mi
11:55 AM55 °FSunny.7 mph24%30.33 "Hg10 mi
Weather by CustomWeather, © 2014

See weather overview